Tracking 29892 objects as of 21-Nov-2024
HD Live streaming from Space Station
objects crossing your sky now

CZ-6A DEB

Track CZ-6A DEB now!
10-day predictions


NORAD ID: 56614
Int'l Code: 2022-151AEN
Perigee: 833.5 km
Apogee: 1,003.8 km
Inclination: 98.8 °
Period: 103.2 minutes
Semi major axis: 7289 km
RCS: Unknown
Launch date: November 11, 2022
Source: People's Republic of China (PRC)
Launch site: Taiyaun Space Center, China (TSC)

Note: This is SATELLITE DEBRIS
Your satellite tracking list
Your tracking list is empty




NASA's NSSDC Master Catalog

Two Line Element Set (TLE):
1 56614U 22151AEN 24326.16436785  .00001483  00000-0  10719-2 0  9996
2 56614  98.7990 303.2319 0116783 195.8270 163.9230 13.94898733 80248
Source of the keplerian elements: AFSPC